www.pogodaiklimat.ru

Погода и климат >> Архив погоды >> Россия >> Ленинградская область >> Белогорка


ПОГОДА в Белогорке

  • Прогноз погоды в Белогорке
  • Монитор погоды в Белогорке

АРХИВ ПОГОДЫ в Белогорке

Время (UTC), дата Ветер
(напр.,м/с)
 
Видим.   Явления Облачность Т
(С)
Тd
(С)
f
(%)
Тe
(С)
Тes
(С)
Комфортность P
(гПа)
Po
(гПа)
Тmin
(С)
Tmax
(С)
R
(мм)
R24
(мм)
S
(см)
06 17.07 СВ 2 10 км 9/3 600 м
[Sc Ac As]
+14.0 +11.8 87 +13 +15 1008.2 997.6 +8.1
09 17.07 СВ 3 4000 м слаб. ливневой дождь 9/9 450 м
[Cb cap]
+14.4 +13.0 91 +13 +14 1007.8 997.3
12 17.07 СВ 2 4000 м дымка {ливн. осадки, дождь} 10/10 420 м
[St]
+14.9 +14.3 96 +15 +15 1008.1 997.6
15 17.07 С 3 10 км 9/9 630 м
[Sc]
+17.6 +14.6 83 +18 +18 1007.6 997.2 2
18 17.07 СВ 1 10 км 9/5 300 м
[Cb cap Ac trans Ci fib]
+16.4 +14.7 90 +17 +17 1008.0 997.5 +17.9 2
21 17.07 С 1 50 км 9/0
[Ac trans Cs]
+14.0 +13.7 98 +14 +14 1007.5 996.9
00 18.07 С 2 4000 м дымка 10/10 270 м
[St]
+14.8 +14.6 99 +14 +14 1007.3 996.8
03 18.07 С 3 500 м туман ?/? +15.0 +14.8 99 +14 +14 1006.8 996.3 +13.8
06 18.07 С 3 4000 м дымка {туман} 10/10 270 м
[St]
+16.0 +15.5 97 +15 +15 1006.3 995.8 +13.8
09 18.07 СВ 4 10 км {ливн. осадки} 9/5 300 м
[Cb cap As trans]
+18.3 +13.9 76 +19 +21 1005.4 995.0
12 18.07 С 4 4000 м слаб. ливневой дождь 9/9 420 м
[Cb cap]
+15.6 +14.7 94 +15 +15 1005.2 994.7
15 18.07 С 3 4000 м дымка {ливн. осадки} 10/10 270 м
[St]
+15.3 +14.8 97 +15 +15 1004.8 994.3 5
18 18.07 С 4 4000 м дымка {ливн. осадки, дождь} 10/10 270 м
[St]
+14.9 +14.5 97 +14 +14 1004.1 993.5 +18.8 9
21 18.07 С 2 4000 м дымка 10/10 270 м
[St]
+14.9 +14.6 98 +15 +15 1004.2 993.7
00 19.07 С 1 4000 м дымка 10/10 270 м
[St]
+15.2 +15.0 99 +16 +16 1004.4 993.9
03 19.07 С 1 1000 м дымка 10/10 270 м
[St]
+15.4 +15.2 99 +16 +16 1004.7 994.2 +14.9 4
06 19.07 С 2 4000 м слаб. дождь 10/0 300 м
[As op]
+15.6 +15.4 99 +15 +17 1004.5 994.0 +14.9 3
09 19.07 С 2 10 км {ливн. осадки, дождь} 10/10 570 м
[Cb cap]
+15.9 +15.4 97 +16 +16 1004.9 994.4
12 19.07 С 2 10 км {ливн. осадки, дождь} 9/9 660 м
[Sc]
+17.2 +15.7 91 +18 +19 1005.3 994.9
15 19.07 С 2 10 км 9/9 480 м
[Cb cap]
+16.8 +15.7 93 +17 +17 1006.2 995.8 9
18 19.07 С 2 4000 м слаб. морось 10/10 360 м
[St]
+15.9 +15.4 97 +16 +16 1007.1 996.6 +17.3 6
21 19.07 СЗ 1 4000 м слаб. дождь {морось} 10/0 360 м
[As op]
+15.3 +15.0 98 +16 +16 1007.5 997.0
00 20.07 З 2 4000 м слаб. морось {дождь} 10/10 420 м
[St]
+15.0 +14.7 98 +15 +15 1007.9 997.4
03 20.07 СЗ 1 4000 м слаб. морось 10/10 360 м
[St]
+14.9 +14.7 99 +15 +15 1008.8 998.3 +14.9 5
06 20.07 СЗ 1 4000 м дымка 10/10 360 м
[St]
+15.7 +15.4 98 +16 +16 1009.6 999.1 +14.9 5
09 20.07 СВ 2 10 км 9/5 300 м
[Cb cap Ac trans]
+18.6 +15.8 84 +20 +23 1011.2 1000.8
12 20.07 СЗ 2 10 км 9/5 300 м
[Cb cap Ac trans]
+21.0 +15.6 71 +25 +28 комфорт 1012.6 1002.2
15 20.07 СЗ 2 10 км 8/5 600 м
[Sc Ci fib]
+21.0 +14.9 68 +25 +26 комфорт 1013.2 1002.8 0.0
18 20.07 штиль 0 10 км 5/3 300 м
[Cb cap Ci fib]
+18.6 +14.6 78 +19 +19 1014.7 1004.2 +21.6
21 20.07 ЮЗ 1 50 км 3/0
[Ci fib]
+13.5 +13.2 98 +14 +14 1016.0 1005.3
00 21.07 З 1 50 км 3/0
[Ci fib]
+11.6 +11.3 98 +11 +11 1016.9 1006.1
03 21.07 ЮЗ 1 10 км 4/0
[Ac trans Ci fib]
+12.0 +11.7 98 +12 +12 1017.2 1006.5 +10.8
06 21.07 С 2 10 км 3/0
[Ci fib]
+19.3 +12.8 66 +21 +27 комфорт 1017.4 1006.9 +10.8
09 21.07 СЗ 2 10 км 3/1 600 м
[Cu med, cong Ci fib]
+22.6 +11.5 49 +25 +36 комфорт 1017.6 1007.2
12 21.07 С 3 10 км 8/5 300 м
[Cb cap Ac trans Ci fib]
+23.3 +11.4 47 +26 +29 жарко 1017.6 1007.3
15 21.07 С 1 10 км 8/3 300 м
[Cb cap Ac trans Cs]
+24.6 +11.4 44 +26 +28 жарко 1017.1 1006.8
18 21.07 СВ 1 10 км 6/0
[Ac trans Ci fib]
+19.5 +13.2 67 +22 +22 комфорт 1017.3 1006.8 +25.2
21 21.07 ЮЗ 1 50 км 3/0
[Ac trans]
+11.8 +11.5 98 +12 +12 1018.0 1007.2
00 22.07 штиль 0 50 км ясно +9.3 +9.2 99 +8 +8 1017.8 1006.9
03 22.07 С 1 10 км 3/1 600 м
[Cu med, cong Ac trans]
+10.6 +10.6 100 +10 +11 1017.7 1006.9 +9.1
06 22.07 СВ 1 10 км 3/0
[Ci fib]
+20.2 +11.3 57 +23 +30 комфорт 1016.6 1006.2 +8.4
09 22.07 СВ 2 10 км 4/0
[Ci fib]
+23.3 +8.0 37 +24 +36 комфорт 1015.9 1005.5
12 22.07 СВ 1 10 км 4/4 600 м
[Cu hum]
+24.5 +8.5 36 +25 +33 комфорт 1015.2 1004.9
15 22.07 С 2 10 км 3/3 600 м
[Cu hum]
+23.7 +10.6 44 +25 +28 комфорт 1014.2 1003.9
18 22.07 СВ 2 10 км 5/0
[Ci fib]
+20.1 +12.8 63 +23 +23 комфорт 1014.1 1003.7 +25.8
21 22.07 штиль 0 50 км 4/0
[Ci fib]
+11.8 +11.5 98 +11 +11 1014.6 1003.9
00 23.07 штиль 0 50 км 4/0
[Ci fib]
+9.7 +9.6 99 +9 +9 1014.7 1003.9
03 23.07 штиль 0 10 км 4/0
[Ci fib]
+10.6 +10.4 99 +10 +11 1014.4 1003.5 +8.2
06 23.07 С 2 10 км ясно +19.7 +12.4 63 +22 +28 комфорт 1013.8 1003.4 +8.2
09 23.07 С 2 10 км 3/3 600 м
[Cu med, cong]
+23.0 +12.1 50 +26 +34 жарко 1013.7 1003.4
12 23.07 С 2 10 км 5/3 600 м
[Cu Sc Ac trans]
+24.1 +11.1 44 +25 +32 комфорт 1013.4 1003.1
15 23.07 СВ 3 10 км 6/0
[Ac trans]
+22.8 +12.0 51 +25 +27 комфорт 1013.3 1003.0
18 23.07 штиль 0 10 км 9/3 600 м
[Cu Sc Ac trans Cs]
+17.7 +14.8 83 +18 +18 1013.9 1003.4 +25.2
21 23.07 СВ 1 50 км 9/0
[Ac trans Cs]
+14.7 +13.1 90 +15 +15 1014.3 1003.7
00 24.07 ЮЗ 1 4000 м дымка 9/0
[Ac trans Ci fib]
+11.4 +11.2 99 +11 +11 1014.4 1003.7
03 24.07 штиль 0 4000 м дымка 9/0
[Ac As Cs]
+12.6 +12.5 99 +12 +12 1014.6 1003.9 +10.7

 

Местоположение метеостанции Белогорка (Ленинградская область, Россия): широта 59.35 долгота 30.13 высота над уровнем моря 89 м.

В архиве по умолчанию представлена погода в Белогорке за последнюю неделю. Архивные данные за месяц целиком и за предыдущие месяцы, начиная с января 2011 года, Вы можете получить, выбрав интересующий диапазон дат из раскрывающегося списка и нажав кнопку "Ввод!".


*Определитесь, кто Вы:
робот инопланетянин человек

Внимание! Время в таблицах - всемирное. Для получения местного времени необходимо прибавить поправку, которая равна 3 ч.

Смотрите также архив погоды в соседних городах и на ближайших метеорологических станциях:

Погода в Волосово (Ленинградская область, Россия) (37 км)
Погода в Любани (Ленинградская область, Россия) (62 км)
Погода в Ломоносове (город Санкт-Петербург, Россия) (66 км)
Погода в Санкт-Петербурге (город Санкт-Петербург, Россия) (70 км)
Погода в Кронштадте (город Санкт-Петербург, Россия) (73 км)
Погода в Шепелево (Ленинградская область, Россия) (73 км)
Погода в Воейково (город Санкт-Петербург, Россия) (74 км)
Погода в Лисьем Носу (город Санкт-Петербург, Россия) (75 км)
Погода в Сосновом Бору (Ленинградская область, Россия) (75 км)
Погода в Шлиссельбурге (Ленинградская область, Россия) (81 км)

Пояснения к столбцам:

Ветер - указаны скорость ветра в м/с - средняя за 10 мин, порывы в срок и между сроками (в фигурных скобках) и направление, откуда дует ветер: С - северный, СВ - северо-восточный, В - восточный, ЮВ - юго-восточный, Ю - южный, ЮЗ - юго-западный, З - западный, СЗ - северо-западный.
Видимость - горизонтальная дальность видимости в метрах или километрах. При видимости от 1 до 10 км при отсутствии осадков обычно наблюдается дымка, при ухудшении видимости до 1 км и менее - туман. В сухую погоду видимость может ухудшаться дымом, пылью или мглою.
Явления - указаны атмосферные явления, наблюдавшиеся в срок или в последний час перед сроком; фигурными скобками обозначены явления, наблюдавшиеся между сроками (за 1-3 часа до срока); квадратными скобками обозначены град или гололедные отложения с указанием их диаметра в мм.
Облачность - указаны через наклонную черту общая и нижняя облачность в баллах и высота нижней границы облаков в метрах; квадратными скобками обозначены формы облаков: Ci - перистые, Cs - перисто-слоистые, Cc - перисто-кучевые, Ac - высококучевые, As - высокослоистые, Sc - слоисто-кучевые, Ns - слоисто-дождевые, Cu - кучевые, Cb - кучево-дождевые. Подробнее классификацию облаков см. в Атласе облаков (PDF).
T - Температура воздуха - температура, измеренная на высоте 2 м над землей.
Td - Температура точки росы - температура, при понижении до которой содержащийся в воздухе водяной пар достигнет насыщения.
f - Относительная влажность воздуха - влажноcть воздуха, измеренная на высоте 2 м над землей.
Te - Эффективная температура - температура, которую ощущает одетый по сезону человек в тени. Характеристика душности погоды. При расчете учитывается влияние влажности воздуха и скорости ветра на теплоощущения человека.
Tes - Эффективная температура на солнце - температура, которую ощущает человек, с поправкой на солнечный нагрев. Характеристика знойности погоды. Зависит от высоты солнца над горизонтом, облачности и скорости ветра. Ночью, в пасмурную погоду, а также при ветре 12 м/с и более поправка равна нулю.
P - Атмосферное давление - приведенное к уровню моря атмосферное давление.
Po - Атмосферное давление - измеренное на уровне метеостанции атмосферное давление.
Tmin - Минимальная температура - минимум температуры воздуха на высоте 2 м над землей.
Tmax - Максимальная температура - максимум температуры воздуха на высоте 2 м над землей.
R - Количество осадков - Количество выпавших осадков за период времени, мм. При наведении курсора мыши на число - период времени, за который выпало указанное количество осадков.
R24 - Количество осадков - Количество выпавших осадков за 24 часа, мм.
S - Снежный покров - Высота снежного покрова, см. При наведении курсора мыши на число - состояние снежного покрова и степень покрытия местности в баллах.